This is the latest recevied weather packets stored in our database for station/object G4WLC-1. If no packets are shown the sender has not sent any weather packets the latest 1 day(s).
| Time | Temp. | Humidity | Pressure | Rain* | Wind** | Luminosity | Snow |
|---|---|---|---|---|---|---|---|
| 1778081281 | 14.44° C | 60% | 1013.6 hPa | 0 mm | - | - | - |
| 1778080981 | 13.89° C | 57% | 1013.7 hPa | 0 mm | - | - | - |
| 1778080681 | 13.89° C | 60% | 1013.7 hPa | 0 mm | - | - | - |
| 1778080381 | 14.44° C | 56% | 1013.7 hPa | 0 mm | - | - | - |
| 1778080081 | 15° C | 55% | 1013.7 hPa | 0 mm | - | - | - |
| 1778079781 | 15.56° C | 57% | 1013.8 hPa | 0 mm | - | - | - |
| 1778079481 | 14.44° C | 59% | 1013.8 hPa | 0 mm | - | - | - |
| 1778079181 | 13.89° C | 61% | 1013.9 hPa | 0 mm | - | - | - |
| 1778078881 | 13.89° C | 62% | 1014 hPa | 0 mm | - | - | - |
| 1778078581 | 13.89° C | 58% | 1014.1 hPa | 0 mm | - | - | - |
| 1778078281 | 13.89° C | 57% | 1014.1 hPa | 0 mm | - | - | - |
| 1778077981 | 13.89° C | 55% | 1014.2 hPa | 0 mm | - | - | - |
| 1778077681 | 14.44° C | 60% | 1014.2 hPa | 0 mm | - | - | - |
| 1778077081 | 15° C | 55% | 1014.4 hPa | 0 mm | - | - | - |
| 1778076781 | 15.56° C | 56% | 1014.4 hPa | 0 mm | - | - | - |
| 1778076481 | 15° C | 59% | 1014.4 hPa | 0 mm | - | - | - |
| 1778076181 | 15° C | 58% | 1014.4 hPa | 0 mm | - | - | - |
| 1778075881 | 15.56° C | 54% | 1014.5 hPa | 0 mm | - | - | - |
| 1778075581 | 16.11° C | 55% | 1014.5 hPa | 0 mm | - | - | - |
| 1778075281 | 16.11° C | 57% | 1014.4 hPa | 0 mm | - | - | - |
| 1778074981 | 15.56° C | 60% | 1014.5 hPa | 0 mm | - | - | - |
| 1778074681 | 15° C | 59% | 1014.5 hPa | 0 mm | - | - | - |
| 1778074381 | 15.56° C | 56% | 1014.5 hPa | 0 mm | - | - | - |
| 1778074081 | 15.56° C | 57% | 1014.5 hPa | 0 mm | - | - | - |
| 1778073781 | 15.56° C | 62% | 1014.5 hPa | 0 mm | - | - | - |
* Rain latest hour (hover to see other rain measurements)
** Current wind speed in m/s (hover to see current wind gust speed)